Presure
180 173 182 180 167 159 163 157 162 163 163 161 148 151 150 150 174 151 147 153 165 157 154 151 147 148 168 143 136 159 147 145 141 148 142 156 142 150 152 160 162 160 166
183 181 191 188 150 166 171 159 162 164 167 154 160 150 151 155 157 154 151 159 162 167 147 159 162 175 158 163 152 149 150 148 143 151 156 144 147 152 163 162 158 168 173
194 125 181 179 180 177 171 170 167 169 158 160 160 156 160 156 150 154 156 152 148 157 152 153 150 149 150 158 157 155 143 145 159 147 150 151 151 159 165 160 168 171 174
189 196 194 182 171 158 139 169 177 163 163 161 159 162 151 162 161 158 152 152 151 152 148 163 156 154 167 166 140 151 161 149 151 150 159 152 146 161 159 166 177 170 170
203 188 201 191 185 178 156 145 173 178 166 161 159 157 159 158 151 161 159 154 155 153 157 159 149 143 145 161 166 148 130 147 156 157 160 161 162 161 165 174 165 164 178
207 202 190 212 195 188 177 181 165 169 166 171 162 160 159 162 132 166 147 150 159 159 157 156 158 156 160 149 159 160 157 161 160 164 167 163 164 162 172 169 156 175 174
218 214 203 193 146 199 194 182 182 176 184 178 168 168 166 165 163 157 160 161 163 161 162 160 159 159 159 156 159 159 156 155 156 148 166 160 178 168 171 170 163 175 171
224 220 222 204 196 217 196 195 189 182 177 168 178 179 173 173 173 166 166 166 157 156 165 163 161 158 159 166 159 161 157 154 160 165 160 169 169 174 170 174 162 182 183
248 240 230 224 213 234 210 199 193 194 189 179 178 176 181 181 177 174 173 164 164 161 159 166 165 161 145 157 163 165 167 165 160 170 157 163 174 174 165 177 184 184 187
295 300 258 256 257 243 274 213 200 196 196 194 189 183 173 175 177 179 181 179 177 171 168 169 170 168 170 170 170 162 163 170 172 165 171 163 176 172 175 182 187 177 249
282 303 304 263 264 264 273 279 245 204 197 194 194 186 175 149 153 162 165 169 171 175 173 171 167 165 164 161 168 166 164 165 169 156 171 173 178 181 184 192 215 230 253
308 292 294 316 294 263 260 268 272 274 216 204 200 192 182 168 166 163 176 169 171 172 172 173 176 175 175 169 171 164 171 176 182 186 185 185 196 190 236 228 238 248 232
293 299 308 284 302 306 269 334 279 270 266 263 216 210 200 191 180 178 158 166 167 172 174 180 187 184 185 185 189 187 185 185 189 192 191 228 238 215 228 207 248 227 247
264 289 292 305 337 281 294 280 330 267 266 264 263 270 241 206 196 185 184 184 182 179 179 180 178 175 174 182 188 192 188 211 196 197 235 228 224 227 246 250 236 254 240
277 290 315 286 323 329 333 330 294 283 288 336 297 285 277 291 263 210 204 198 194 191 192 189 187 192 195 197 195 218 219 188 230 231 216 232 233 245 242 237 251 240 231
276 326 322 323 333 313 333 410 328 327 293 291 279 308 271 338 288 269 265 266 261 259 251 251 250 240 237 236 238 226 229 221 223 220 256 233 250 240 237 254 240 230 225
278 298 299 305 315 310 354 350 344 319 319 321 316 278 277 275 267 266 264 263 261 250 246 235 236 236 230 226 218 155 231 246 247 244 254 247 243 259 240 238 229 226 227
285 292 306 284 320 328 327 334 345 318 318 320 312 306 319 309 330 315 345 310 297 290 275 278 305 287 277 271 262 254 254 254 254 244 239 257 243 241 237 228 227 236 247
278 275 281 298 316 324 336 360 319 312 328 321 304 302 349 333 337 304 300 327 269 289 277 289 271 265 268 272 260 257 246 247 240 271 242 238 233 229 227 228 253 240 255
276 283 286 292 313 306 332 316 340 357 339 348 316 317 304 319 307 304 295 285 305 274 266 262 267 249 252 245 239 241 265 264 242 236 241 228 228 230 234 254 241 250 259
263 276 275 282 298 304 306 307 333 316 334 331 303 317 320 300 310 313 288 271 275 280 281 263 252 257 264 256 254 253 240 240 233 228 229 234 232 256 245 252 243 250 241
259 270 276 285 287 285 302 286 312 302 302 299 297 293 289 291 270 286 267 283 263 267 265 261 244 249 250 240 240 239 237 235 236 236 236 254 243 260 248 239 250 239 238
263 260 281 261 275 280 282 274 280 288 288 285 277 279 277 275 266 271 272 263 281 256 245 263 246 235 234 244 236 234 237 235 250 250 245 260 246 243 240 241 237 236 239
251 262 266 267 280 271 281 269 258 269 263 271 266 268 256 276 267 263 260 253 255 257 252 243 245 237 233 235 236 235 252 246 240 253 245 251 260 295 267 246 241 237 228
266 260 259 270 272 276 260 264 271 274 268 253 255 253 248 253 259 250 244 247 241 236 236 237 234 233 236 246 249 239 245 249 246 258 254 262 256 248 240 239 234 233 237
273 272 260 254 267 251 278 268 264 254 260 249 261 255 252 246 245 243 237 237 236 235 233 236 241 242 242 237 250 244 245 255 243 245 245 247 247 249 257 259 248 239 233
Wind_Speed
98 96 102 103 95 84 86 81 90 89 84 80 70 72 71 69 79 68 65 69 77 66 66 65 64 65 78 58 59 77 60 61 60 73 67 90 70 80 83 93 94 90 101
93 97 102 105 78 94 98 82 88 91 90 75 82 71 73 76 76 73 70 74 73 77 65 74 77 82 75 79 69 64 68 68 63 80 87 73 79 84 96 96 89 102 108
98 55 99 99 101 104 99 96 91 95 84 86 82 79 84 79 70 73 71 68 65 74 71 72 69 67 68 80 77 75 64 69 89 71 81 87 86 93 101 93 105 107 105
93 101 103 103 99 91 67 93 98 88 91 90 83 88 72 86 86 80 70 72 69 72 67 84 76 74 86 89 65 75 89 76 81 81 95 86 81 100 95 107 113 105 105
101 97 107 105 105 105 86 69 97 101 96 90 90 85 86 83 74 87 83 76 78 76 83 83 69 63 67 87 91 69 64 76 92 94 97 99 97 99 103 110 105 104 114
109 104 97 111 107 107 105 108 91 95 91 102 95 93 92 94 71 95 64 72 84 84 83 82 85 85 87 74 87 90 87 94 94 100 102 98 101 99 107 105 92 111 109
108 108 99 97 69 109 108 107 107 103 106 105 101 102 102 98 92 78 86 88 92 89 91 90 88 86 86 83 89 90 87 87 88 78 105 93 113 106 108 106 99 109 106
104 106 107 102 100 111 109 110 110 109 107 98 105 108 107 105 104 97 96 97 84 80 94 92 92 88 90 100 90 97 92 90 100 109 99 108 107 111 107 110 99 113 114
101 106 107 108 102 105 113 113 110 111 112 107 105 103 106 107 104 103 102 94 94 89 84 99 99 95 72 90 102 103 105 106 100 109 95 103 113 113 105 115 119 117 119
77 85 102 102 103 104 109 113 114 111 111 112 110 106 98 100 100 102 104 104 104 99 97 100 101 101 103 103 105 101 101 108 110 106 111 102 115 113 116 121 121 114 105
77 77 80 106 106 103 103 107 111 115 112 109 107 104 95 74 78 89 92 95 96 100 100 98 97 97 97 96 103 104 103 106 109 98 112 113 116 118 119 124 118 110 95
47 71 76 69 103 103 103 106 105 106 114 114 113 105 100 93 93 90 97 95 97 100 100 101 102 101 103 102 104 103 108 110 113 116 116 115 124 119 104 109 109 93 102
52 52 54 80 77 81 99 74 108 102 99 103 114 114 109 102 96 95 85 91 93 96 97 101 105 104 105 107 110 110 109 111 115 116 117 109 107 116 107 110 95 102 90
63 54 57 54 50 83 84 92 74 98 101 102 104 104 109 112 108 101 100 100 100 98 98 99 97 96 96 103 107 112 109 106 117 117 104 103 103 107 104 90 97 85 87
53 50 44 56 49 52 55 64 83 90 89 82 103 97 98 101 102 113 112 110 109 108 108 104 102 109 111 111 110 99 99 108 99 100 97 101 96 97 91 90 83 85 89
47 33 36 40 43 53 52 38 62 66 81 83 86 85 89 80 97 93 90 94 92 89 88 88 89 90 91 93 95 93 96 94 97 95 81 105 87 88 89 80 83 86 86
41 34 37 37 39 45 36 41 52 64 67 68 71 80 81 82 82 85 89 94 95 90 86 85 88 93 89 93 90 69 99 107 91 93 78 83 86 75 81 81 83 84 86
31 30 27 39 31 33 37 40 41 59 63 65 66 68 65 69 62 71 61 76 82 88 89 82 54 59 68 69 76 83 82 78 74 79 82 73 76 77 78 81 84 88 78
29 34 31 28 29 32 36 28 42 50 49 53 60 62 49 50 48 60 56 50 65 55 65 55 68 70 63 65 65 63 75 73 78 68 73 75 78 78 80 84 81 77 71
24 26 29 26 25 27 27 25 27 27 30 29 45 41 50 37 48 50 50 58 50 61 65 62 47 62 64 68 69 71 65 60 68 72 69 76 78 81 83 76 76 69 65
27 24 27 26 23 22 22 22 25 25 27 31 37 32 35 42 35 39 40 55 42 46 58 60 63 61 55 54 57 57 65 65 68 72 74 76 79 76 75 71 69 64 64
29 23 24 24 22 21 21 23 22 24 26 27 26 26 28 27 44 37 49 39 51 46 40 43 54 53 53 59 60 61 64 67 70 72 74 72 73 68 66 67 62 62 63
33 28 21 25 24 22 21 23 19 23 26 29 33 29 31 31 36 36 36 40 38 41 48 39 44 54 57 54 61 64 66 67 68 67 69 65 65 64 64 63 61 62 61
29 29 25 24 22 23 19 29 31 26 31 27 32 30 36 28 29 27 29 32 35 39 40 45 47 51 58 60 61 62 61 61 63 61 62 62 62 56 55 59 59 59 61
32 28 27 26 25 24 29 29 25 29 33 34 31 32 36 34 31 37 39 35 38 45 48 50 52 55 57 57 53 56 56 54 56 53 54 53 53 53 53 54 56 58 59
28 27 27 27 27 29 24 30 32 32 29 32 30 33 32 36 37 38 42 43 46 47 49 50 50 50 51 51 48 49 50 48 49 50 50 50 49 49 49 48 51 55 58
Wind_Direction
226 229 229 231 235 240 241 241 245 248 251 250 249 251 253 255 255 260 260 263 266 271 274 275 276 280 275 281 276 284 289 292 291 298 296 299 299 301 304 305 307 310 311
228 229 228 229 240 239 239 241 242 248 249 249 252 251 255 257 260 260 262 264 269 270 272 275 275 267 281 278 286 288 292 293 292 296 296 297 298 301 303 305 307 310 311
227 234 230 232 233 236 240 240 241 242 248 250 251 253 255 257 257 261 264 265 267 270 274 276 276 279 281 282 287 290 289 290 291 294 296 297 299 303 303 306 307 308 310
227 228 229 230 235 241 241 243 241 244 246 251 253 255 252 258 259 261 263 266 267 270 272 271 274 279 275 278 278 289 287 291 294 294 295 297 296 301 304 306 307 308 308
234 228 228 231 231 235 244 244 242 239 243 248 252 255 257 259 259 262 263 265 267 269 271 274 276 276 279 284 283 288 283 290 291 292 294 296 299 301 303 303 304 306 306
233 234 229 228 232 232 237 238 243 244 243 244 249 252 256 257 258 260 260 263 267 270 272 275 276 278 280 284 284 286 288 288 292 293 294 297 299 300 301 302 302 303 305
234 233 235 232 231 234 234 238 240 243 242 243 247 249 252 255 259 261 264 265 268 270 272 274 276 280 283 284 285 287 290 291 293 293 296 296 296 298 299 299 301 302 304
235 237 237 233 232 232 237 237 238 240 244 246 244 247 250 253 254 259 262 264 268 270 271 273 276 280 281 282 285 286 289 290 291 291 294 294 296 296 297 299 301 302 304
231 235 236 239 234 234 232 237 239 239 240 246 247 248 249 252 254 256 257 263 266 270 273 272 274 277 280 284 284 285 285 287 290 290 293 295 295 295 298 299 300 302 303
228 229 235 238 239 238 240 234 238 241 241 242 245 248 252 254 255 257 258 260 263 267 269 270 272 275 276 278 280 283 285 286 287 290 291 294 293 295 296 297 299 300 307
231 231 232 235 239 240 240 241 239 238 241 244 245 247 250 257 259 260 262 264 265 266 268 270 273 275 277 279 280 282 284 285 286 291 289 290 291 292 293 295 299 303 300
236 234 235 236 234 239 244 245 243 244 240 242 244 246 247 252 255 258 257 261 263 265 267 269 271 273 274 276 278 280 280 282 284 283 285 288 289 290 298 299 302 298 302
237 237 238 236 238 238 240 239 241 245 246 247 243 245 247 250 253 255 260 260 261 263 265 266 268 271 273 274 276 277 279 281 282 285 286 290 294 290 298 292 297 300 299
238 244 241 241 250 242 242 242 241 246 249 250 252 253 249 249 251 253 256 258 260 262 264 266 268 269 271 274 276 277 278 281 282 284 292 291 292 292 295 294 297 297 299
244 250 253 245 249 247 242 241 244 244 246 244 246 248 252 252 252 252 254 256 259 260 262 265 268 269 270 273 274 276 279 281 286 287 286 290 291 291 293 294 294 296 298
249 252 254 254 257 244 248 254 237 237 245 246 248 246 251 239 249 252 256 259 261 263 264 267 269 268 271 274 277 277 284 282 285 288 280 289 287 290 292 291 293 296 298
252 253 253 254 259 249 263 250 242 237 237 237 240 247 249 251 252 254 256 259 260 261 263 266 269 271 273 274 273 280 280 277 277 281 281 283 288 288 288 291 294 297 300
256 260 263 252 267 261 254 250 245 240 238 238 238 241 242 244 244 246 248 245 252 257 261 263 261 262 264 267 267 271 275 276 277 281 284 283 285 288 291 295 296 297 299
252 254 257 265 268 263 260 249 245 242 240 240 240 242 241 242 244 248 251 251 252 255 260 256 260 266 265 265 271 269 275 278 280 278 280 285 287 290 291 293 297 298 299
256 260 264 263 272 265 255 245 239 230 226 230 236 238 242 245 246 245 239 251 246 251 257 263 259 262 265 271 272 273 276 275 277 280 280 286 288 290 292 294 296 296 297
255 260 260 263 276 266 239 246 239 225 231 227 235 237 236 242 242 239 239 250 258 257 253 259 264 268 270 266 268 271 275 277 279 282 284 285 287 290 292 293 294 295 296
256 258 253 258 264 254 243 241 225 219 216 219 221 225 234 235 246 242 248 238 251 257 255 254 262 262 262 269 273 274 277 279 280 282 284 287 288 289 290 292 293 294 296
256 260 253 249 248 245 239 231 231 226 229 230 236 226 233 235 244 245 247 249 248 251 257 257 261 263 268 271 271 275 279 280 282 284 286 286 287 288 289 291 293 295 295
257 259 257 247 241 238 234 228 234 229 234 233 237 237 240 233 237 240 243 245 251 254 255 259 262 265 268 271 275 278 278 281 284 284 286 287 288 287 289 291 293 293 295
253 252 253 254 237 233 231 230 229 229 231 235 234 234 239 240 238 242 244 245 247 252 255 258 262 266 270 274 276 278 282 283 285 288 288 289 290 291 291 291 292 294 296
245 242 238 241 238 238 231 230 231 228 222 228 227 225 226 232 234 236 243 247 250 255 260 263 266 269 272 276 279 280 284 288 288 291 290 291 292 292 292 293 294 295 298